When you browse on this site, cookies collect data to enhance your experience and personalize the content and advertising you see.
Visit our Privacy Policy to learn more. By continuing to use the site, you agree to this use of cookies and data.
  • In Hungary
  • List of Countries
  • For 7 days
  • Water Temperature
  • Weather Map
  • News
  • Weather Widgets
  • user-avatar
    Login

    Hourly Weather Wrzaca

    Today, 8 December, Sunday

    Time Temperature Precipitation Wind Pressure Humidity
    00:00 +5°C° 0.2 mm 7 mps 743 mmHg 84%
    01:00 +5°C° 0 mm 7 mps 743 mmHg 83%
    02:00 +4°C° 0 mm 6 mps 743 mmHg 84%
    03:00 +4°C° 0 mm 6 mps 743 mmHg 84%
    04:00 +4°C° 0 mm 6 mps 742 mmHg 85%
    05:00 +4°C° 0 mm 6 mps 743 mmHg 85%
    06:00 +3°C° 0 mm 6 mps 743 mmHg 84%
    07:00 +3°C° 0 mm 6 mps 743 mmHg 84%
    08:00 +3°C° 0 mm 6 mps 742 mmHg 82%
    09:00 +3°C° 0 mm 7 mps 742 mmHg 79%
    10:00 +4°C° 0 mm 7 mps 742 mmHg 76%
    11:00 +4°C° 0 mm 7 mps 741 mmHg 74%
    12:00 +5°C° 0 mm 8 mps 740 mmHg 72%
    13:00 +5°C° 0 mm 8 mps 740 mmHg 69%
    14:00 +5°C° 0 mm 8 mps 739 mmHg 70%
    15:00 +5°C° 0 mm 8 mps 738 mmHg 71%
    16:00 +5°C° 0 mm 8 mps 738 mmHg 72%
    17:00 +5°C° 0 mm 8 mps 738 mmHg 71%
    18:00 +5°C° 0 mm 8 mps 738 mmHg 71%
    19:00 +6°C° 0 mm 8 mps 737 mmHg 70%
    20:00 +6°C° 0.3 mm 8 mps 737 mmHg 75%
    21:00 +5°C° 0.3 mm 8 mps 737 mmHg 79%
    22:00 +5°C° 0.3 mm 8 mps 736 mmHg 83%
    23:00 +5°C° 0.2 mm 8 mps 736 mmHg 83%

    Tomorrow, 9 December, Monday

    Time Temperature Precipitation Wind Pressure Humidity
    00:00 +5°C° 0.2 mm 8 mps 736 mmHg 82%
    01:00 +5°C° 0.2 mm 8 mps 736 mmHg 81%
    02:00 +5°C° 0.2 mm 7 mps 736 mmHg 83%
    03:00 +5°C° 0.2 mm 7 mps 735 mmHg 84%
    04:00 +5°C° 0.2 mm 7 mps 735 mmHg 86%
    05:00 +5°C° 0.4 mm 6 mps 735 mmHg 86%
    06:00 +5°C° 0.4 mm 6 mps 736 mmHg 85%
    07:00 +6°C° 0.4 mm 5 mps 736 mmHg 85%
    08:00 +5°C° 0 mm 6 mps 736 mmHg 83%
    09:00 +5°C° 0 mm 6 mps 736 mmHg 80%
    10:00 +7°C° 0 mm 6 mps 736 mmHg 78%
    11:00 +7°C° 0 mm 6 mps 736 mmHg 73%
    12:00 +7°C° 0 mm 6 mps 736 mmHg 68%
    13:00 +7°C° 0 mm 6 mps 736 mmHg 62%
    14:00 +7°C° 0 mm 6 mps 736 mmHg 64%
    15:00 +6°C° 0 mm 5 mps 736 mmHg 65%
    16:00 +6°C° 0 mm 5 mps 736 mmHg 67%
    17:00 +5°C° 0 mm 5 mps 736 mmHg 68%
    18:00 +4°C° 0 mm 6 mps 736 mmHg 70%
    19:00 +4°C° 0 mm 6 mps 736 mmHg 71%
    20:00 +4°C° 0 mm 6 mps 737 mmHg 72%
    21:00 +4°C° 0 mm 6 mps 737 mmHg 74%
    22:00 +4°C° 0 mm 6 mps 737 mmHg 75%
    23:00 +4°C° 0 mm 7 mps 738 mmHg 77%

    Day after tomorrow, 10 December, Tuesday

    Time Temperature Precipitation Wind Pressure Humidity
    00:00 +4°C° 0 mm 7 mps 738 mmHg 79%
    01:00 +4°C° 0 mm 7 mps 739 mmHg 80%
    02:00 +4°C° 0.1 mm 7 mps 739 mmHg 82%
    03:00 +3°C° 0.1 mm 6 mps 740 mmHg 83%
    04:00 +3°C° 0.1 mm 6 mps 741 mmHg 84%
    05:00 +3°C° 0 mm 6 mps 741 mmHg 81%
    06:00 +2°C° 0 mm 6 mps 742 mmHg 78%
    07:00 +1°C° 0 mm 6 mps 743 mmHg 74%
    08:00 +1°C° 0 mm 6 mps 744 mmHg 75%
    09:00 0°C° 0 mm 7 mps 744 mmHg 76%
    10:00 +2°C° 0 mm 7 mps 745 mmHg 77%
    11:00 0°C° 0.1 mm 7 mps 745 mmHg 82%
    12:00 +1°C° 0.1 mm 6 mps 745 mmHg 87%
    13:00 +1°C° 0.1 mm 6 mps 746 mmHg 91%
    14:00 +2°C° 0.3 mm 6 mps 746 mmHg 91%
    15:00 +2°C° 0.3 mm 6 mps 747 mmHg 90%
    16:00 +2°C° 0.3 mm 5 mps 747 mmHg 90%
    17:00 +2°C° 0.5 mm 5 mps 748 mmHg 90%
    18:00 +2°C° 0.5 mm 5 mps 749 mmHg 90%
    19:00 +2°C° 0.5 mm 5 mps 749 mmHg 90%
    20:00 +2°C° 0.1 mm 5 mps 750 mmHg 90%
    21:00 +1°C° 0.1 mm 5 mps 750 mmHg 89%
    22:00 +1°C° 0.1 mm 4 mps 750 mmHg 89%
    23:00 +1°C° 0.1 mm 4 mps 750 mmHg 89%

    11 December, Wednesday

    Time Temperature Precipitation Wind Pressure Humidity
    00:00 0°C° 0.1 mm 4 mps 751 mmHg 89%
    01:00 0°C° 0.1 mm 4 mps 751 mmHg 89%
    02:00 +1°C° 0 mm 3 mps 751 mmHg 87%
    03:00 0°C° 0 mm 3 mps 751 mmHg 84%
    04:00 0°C° 0 mm 3 mps 750 mmHg 82%
    05:00 +1°C° 0 mm 2 mps 750 mmHg 82%
    06:00 -1°C° 0 mm 2 mps 750 mmHg 82%
    07:00 +1°C° 0 mm 1 mps 750 mmHg 82%
    08:00 -1°C° 0 mm 2 mps 749 mmHg 79%
    09:00 0°C° 0 mm 3 mps 749 mmHg 75%
    10:00 -1°C° 0 mm 4 mps 749 mmHg 72%
    11:00 0°C° 0 mm 4 mps 748 mmHg 66%
    12:00 0°C° 0 mm 4 mps 748 mmHg 60%
    13:00 +1°C° 0 mm 5 mps 747 mmHg 54%
    14:00 0°C° 0 mm 4 mps 746 mmHg 60%
    15:00 0°C° 0 mm 4 mps 746 mmHg 67%
    16:00 -1°C° 0 mm 4 mps 745 mmHg 73%
    17:00 -1°C° 0 mm 5 mps 745 mmHg 75%
    18:00 -1°C° 0 mm 5 mps 745 mmHg 77%
    19:00 -2°C° 0 mm 6 mps 744 mmHg 79%
    20:00 -2°C° 0 mm 6 mps 744 mmHg 78%
    21:00 -2°C° 0 mm 6 mps 744 mmHg 78%
    22:00 -2°C° 0 mm 6 mps 744 mmHg 78%
    23:00 -2°C° 0 mm 6 mps 743 mmHg 76%

    12 December, Thursday

    Time Temperature Precipitation Wind Pressure Humidity
    00:00 -2°C° 0 mm 6 mps 743 mmHg 75%
    01:00 -2°C° 0 mm 7 mps 742 mmHg 73%
    02:00 -2°C° 0 mm 7 mps 742 mmHg 74%
    03:00 -2°C° 0 mm 6 mps 742 mmHg 74%
    04:00 -2°C° 0 mm 6 mps 741 mmHg 75%
    05:00 -2°C° 0.2 mm 6 mps 741 mmHg 81%
    06:00 -2°C° 0.2 mm 6 mps 741 mmHg 87%
    07:00 -2°C° 0.2 mm 6 mps 741 mmHg 93%
    08:00 -1°C° 0 mm 5 mps 742 mmHg 88%
    09:00 0°C° 0 mm 5 mps 742 mmHg 82%
    10:00 0°C° 0 mm 5 mps 742 mmHg 77%
    11:00 +1°C° 0 mm 5 mps 742 mmHg 75%
    12:00 +1°C° 0 mm 5 mps 742 mmHg 74%
    13:00 +1°C° 0 mm 5 mps 742 mmHg 72%
    14:00 +1°C° 0 mm 5 mps 742 mmHg 75%
    15:00 +1°C° 0 mm 4 mps 742 mmHg 77%
    16:00 0°C° 0 mm 4 mps 742 mmHg 80%
    17:00 0°C° 0 mm 4 mps 742 mmHg 82%
    18:00 0°C° 0 mm 4 mps 742 mmHg 84%
    19:00 -1°C° 0 mm 4 mps 743 mmHg 86%
    20:00 -1°C° 0 mm 4 mps 742 mmHg 86%
    21:00 -2°C° 0 mm 4 mps 742 mmHg 87%
    22:00 -2°C° 0 mm 4 mps 742 mmHg 87%
    23:00 -2°C° 0 mm 4 mps 742 mmHg 87%

    13 December, Friday

    Time Temperature Precipitation Wind Pressure Humidity
    00:00 -2°C° 0 mm 4 mps 741 mmHg 87%
    01:00 -2°C° 0 mm 5 mps 740 mmHg 88%
    02:00 -2°C° 0 mm 5 mps 739 mmHg 85%
    03:00 -3°C° 0 mm 6 mps 738 mmHg 82%
    04:00 -3°C° 0 mm 7 mps 737 mmHg 79%
    05:00 -2°C° 0 mm 7 mps 736 mmHg 75%
    06:00 -2°C° 0 mm 8 mps 735 mmHg 71%
    07:00 -3°C° 0 mm 9 mps 734 mmHg 67%
    08:00 -1°C° 0 mm 9 mps 733 mmHg 63%
    09:00 0°C° 0 mm 9 mps 732 mmHg 60%
    10:00 0°C° 0 mm 9 mps 731 mmHg 56%
    11:00 0°C° 0.1 mm 9 mps 730 mmHg 56%
    12:00 +1°C° 0.1 mm 9 mps 729 mmHg 56%
    13:00 +1°C° 0.1 mm 9 mps 728 mmHg 56%
    14:00 +1°C° 0.4 mm 9 mps 727 mmHg 60%
    15:00 +1°C° 0.4 mm 9 mps 727 mmHg 63%
    16:00 0°C° 0.4 mm 8 mps 727 mmHg 67%
    17:00 0°C° 0 mm 8 mps 728 mmHg 71%
    18:00 0°C° 0 mm 7 mps 728 mmHg 75%
    19:00 0°C° 0 mm 7 mps 729 mmHg 79%
    20:00 0°C° 0 mm 7 mps 729 mmHg 82%
    21:00 +1°C° 0 mm 6 mps 730 mmHg 85%
    22:00 -1°C° 0 mm 6 mps 730 mmHg 88%
    23:00 -1°C° 0 mm 6 mps 730 mmHg 85%
    Show more